Location: Schommer Observatory
(40.5200°N, 74.4500°W)
Time: 05:05:15
(UTC-04:00)

Vanguard 2 Rocket - Visible Passes

Search period start: 23 May 2018 00:00
Search period end: 02 June 2018 00:00
Orbit: 554 x 3327 km, 32.9° (Epoch: 22 May)

Date Brightness Start Highest point End Pass type
(mag) Time Alt. Az. Time Alt. Az. Time Alt. Az.
23 May 9.9 03:38:32 11° S 03:38:32 11° S 03:39:27 10° S visible
23 May 6.8 22:04:51 10° WSW 22:08:27 32° S 22:08:39 32° SSE visible
24 May 7.0 21:06:09 10° SW 21:09:29 26° S 21:12:37 12° ESE visible
24 May 8.4 23:17:57 10° WSW 23:18:26 13° WSW 23:18:26 13° WSW visible
25 May 7.0 22:19:10 10° WSW 22:22:22 30° S 22:22:22 30° S visible
26 May 6.8 21:20:17 10° WSW 21:23:44 29° S 21:26:15 17° SE visible
27 May 7.4 22:33:39 10° WSW 22:35:55 23° SSW 22:35:55 23° SSW visible
28 May 6.9 21:34:36 10° WSW 21:38:01 28° S 21:39:47 20° SE visible
29 May 8.1 22:48:25 10° WSW 22:49:26 14° SW 22:49:26 14° SW visible
30 May 7.2 21:49:07 10° WSW 21:52:16 22° SSW 21:53:16 20° S visible
31 May 7.1 20:49:40 10° WSW 20:53:19 27° S 20:56:41 10° SE visible
01 Jun 7.7 22:04:01 10° WSW 22:06:28 16° SSW 22:06:46 16° SSW visible
